Location: Waning Moon II Observatory
(30.3730°N, 89.7620°W)
Time: 08:26:27
(UTC-05:00)

Cosmos 1825 Rocket - Visible Passes

Search period start: 16 September 2014 00:00
Search period end: 26 September 2014 00:00
Orbit: 605 x 634 km, 82.5° (Epoch: 15 September)

Date Brightness Start Highest point End Pass type
(mag) Time Alt. Az. Time Alt. Az. Time Alt. Az.
16 Sep 6.5 04:26:39 10° ESE 04:28:54 14° E 04:31:09 10° NE visible
16 Sep 4.2 06:02:32 10° SW 06:06:24 32° W 06:10:16 10° NNW visible
17 Sep 5.5 04:42:26 10° SSE 04:46:08 28° E 04:49:50 10° NNE visible
17 Sep 5.1 06:21:17 10° WSW 06:23:58 16° WNW 06:26:40 10° NW visible
18 Sep 4.0 05:00:10 16° S 05:03:27 60° E 05:07:43 10° NNE visible
19 Sep 3.4 05:18:57 31° SSW 05:20:52 63° W 05:25:08 10° N visible
20 Sep 6.3 04:00:17 15° E 04:00:49 15° E 04:03:17 10° NE visible
20 Sep 4.3 05:37:31 28° W 05:38:21 30° W 05:42:09 10° NNW visible
21 Sep 5.4 04:18:42 29° ENE 04:18:42 29° ENE 04:21:50 10° NNE visible
21 Sep 5.2 05:55:55 15° WNW 05:55:56 15° WNW 05:58:25 10° NW visible
22 Sep 4.8 04:36:58 36° NNE 04:36:58 36° NNE 04:39:39 10° NNE visible
23 Sep 5.1 04:55:08 25° NNW 04:55:08 25° NNW 04:57:03 10° N visible
24 Sep 5.7 05:13:13 14° NNW 05:13:13 14° NNW 05:14:00 10° NNW visible
